Tracking 35280 objects as of 7-Sep-2026
HD Live streaming from Space Station
objects crossing your sky now

NINGXIA-1 5

Track NINGXIA-1 5 now!
10-day predictions


NORAD ID: 44783
Int'l Code: 2019-076E
Launch date: November 13, 2019
Source: People's Republic of China (PRC)
Launch site: Taiyaun Space Center, China (TSC)
Your satellite tracking list
Your tracking list is empty




NASA's NSSDC Master Catalog

Two Line Element Set (TLE):
1 44783U 19076E   26250.20962873  .00000061  00000-0  12419-3 0  9998
2 44783  45.0043 172.6178 0010282 179.5753 180.5091 14.02094374349280
Source of the keplerian elements: AFSPC